Time,TemperatureF,DewpointF,PressureIn,WindDirection,WindDirectionDegrees,WindSpeedMPH,WindSpeedGustMPH,Humidity,HourlyPrecipIn,Conditions,Clouds,dailyrainin,SoftwareType,DateUTC
2013-09-04 00:05:00,60.5,58.5,30.04,South,190,0.0,0.0,93,0.00,,,0.00,Wunderground v.1.15,2013-09-04 05:05:00,
2013-09-04 00:15:00,60.3,58.3,30.04,South,190,0.0,0.0,93,0.00,,,0.00,Wunderground v.1.15,2013-09-04 05:15:00,
2013-09-04 00:25:00,60.2,58.5,30.04,South,190,0.0,0.0,94,0.00,,,0.00,Wunderground v.1.15,2013-09-04 05:25:00,
2013-09-04 00:35:00,60.1,58.4,30.04,South,190,0.0,0.0,94,0.00,,,0.00,Wunderground v.1.15,2013-09-04 05:35:00,
2013-09-04 00:45:00,60.1,58.4,30.05,South,190,0.0,0.0,94,0.00,,,0.00,Wunderground v.1.15,2013-09-04 05:45:00,
2013-09-04 00:55:00,60.0,58.3,30.05,South,190,0.0,0.0,94,0.00,,,0.00,Wunderground v.1.15,2013-09-04 05:55:00,
2013-09-04 01:00:00,59.9,58.2,30.05,South,190,0.0,0.0,94,0.00,,,0.00,Wunderground v.1.15,2013-09-04 06:00:00,
2013-09-04 01:10:00,59.7,58.0,30.05,South,190,0.0,0.0,94,0.00,,,0.00,Wunderground v.1.15,2013-09-04 06:10:00,
2013-09-04 01:20:00,59.3,57.6,30.05,South,190,0.0,0.0,94,0.00,,,0.00,Wunderground v.1.15,2013-09-04 06:20:00,
2013-09-04 01:25:00,59.1,57.4,30.05,South,190,0.0,0.0,94,0.00,,,0.00,Wunderground v.1.15,2013-09-04 06:25:00,
2013-09-04 01:35:00,58.8,57.1,30.05,South,190,0.0,0.0,94,0.00,,,0.00,Wunderground v.1.15,2013-09-04 06:35:00,
2013-09-04 01:40:00,58.7,57.0,30.06,South,190,0.0,0.0,94,0.00,,,0.00,Wunderground v.1.15,2013-09-04 06:40:00,
2013-09-04 01:50:00,58.8,57.4,30.06,South,190,0.0,0.0,95,0.00,,,0.00,Wunderground v.1.15,2013-09-04 06:50:00,
2013-09-04 01:55:00,58.8,57.4,30.06,South,190,0.0,0.0,95,0.00,,,0.00,Wunderground v.1.15,2013-09-04 06:55:00,
2013-09-04 02:05:00,58.7,57.3,30.06,South,190,0.0,0.0,95,0.00,,,0.00,Wunderground v.1.15,2013-09-04 07:05:00,
2013-09-04 02:10:00,58.6,57.2,30.06,South,190,0.0,0.0,95,0.00,,,0.00,Wunderground v.1.15,2013-09-04 07:10:00,
2013-09-04 02:20:00,58.4,56.7,30.06,South,190,0.0,0.0,94,0.00,,,0.00,Wunderground v.1.15,2013-09-04 07:20:00,
2013-09-04 02:25:00,58.2,56.8,30.07,South,190,0.0,0.0,95,0.00,,,0.00,Wunderground v.1.15,2013-09-04 07:25:00,
2013-09-04 02:35:00,57.9,56.2,30.07,South,190,0.0,0.0,94,0.00,,,0.00,Wunderground v.1.15,2013-09-04 07:35:00,
2013-09-04 02:40:00,57.8,56.4,30.07,South,190,0.0,0.0,95,0.00,,,0.00,Wunderground v.1.15,2013-09-04 07:40:00,
2013-09-04 02:50:00,57.6,56.2,30.06,South,190,0.0,0.0,95,0.00,,,0.00,Wunderground v.1.15,2013-09-04 07:50:00,
2013-09-04 03:00:00,57.7,56.3,30.07,South,190,0.0,0.0,95,0.00,,,0.00,Wunderground v.1.15,2013-09-04 08:00:00,
2013-09-04 03:10:00,57.5,56.1,30.08,South,190,0.0,0.0,95,0.00,,,0.00,Wunderground v.1.15,2013-09-04 08:10:00,
2013-09-04 03:15:00,57.2,55.5,30.08,South,190,0.0,0.0,94,0.00,,,0.00,Wunderground v.1.15,2013-09-04 08:15:00,
2013-09-04 03:25:00,57.1,55.7,30.08,South,190,0.0,0.0,95,0.00,,,0.00,Wunderground v.1.15,2013-09-04 08:25:00,
2013-09-04 03:30:00,57.1,55.7,30.08,South,190,0.0,0.0,95,0.00,,,0.00,Wunderground v.1.15,2013-09-04 08:30:00,
2013-09-04 03:40:00,56.9,55.5,30.08,South,190,0.0,0.0,95,0.00,,,0.00,Wunderground v.1.15,2013-09-04 08:40:00,
2013-09-04 03:45:00,56.7,55.3,30.08,South,190,0.0,0.0,95,0.00,,,0.00,Wunderground v.1.15,2013-09-04 08:45:00,
2013-09-04 03:55:00,56.6,55.2,30.08,South,190,0.0,0.0,95,0.00,,,0.00,Wunderground v.1.15,2013-09-04 08:55:00,
2013-09-04 04:05:00,56.5,55.1,30.08,South,190,0.0,0.0,95,0.00,,,0.00,Wunderground v.1.15,2013-09-04 09:05:00,
2013-09-04 04:15:00,56.6,55.2,30.08,South,190,0.0,0.0,95,0.00,,,0.00,Wunderground v.1.15,2013-09-04 09:15:00,
2013-09-04 04:25:00,56.5,55.1,30.09,South,190,0.0,0.0,95,0.00,,,0.00,Wunderground v.1.15,2013-09-04 09:25:00,
2013-09-04 04:35:00,56.4,55.0,30.08,South,190,0.0,0.0,95,0.00,,,0.00,Wunderground v.1.15,2013-09-04 09:35:00,
2013-09-04 04:40:00,56.4,55.0,30.09,South,190,0.0,0.0,95,0.00,,,0.00,Wunderground v.1.15,2013-09-04 09:40:00,
2013-09-04 04:50:00,56.3,54.9,30.09,South,190,0.0,0.0,95,0.00,,,0.00,Wunderground v.1.15,2013-09-04 09:50:00,
2013-09-04 05:00:00,56.0,54.6,30.09,South,190,0.0,0.0,95,0.00,,,0.00,Wunderground v.1.15,2013-09-04 10:00:00,
2013-09-04 05:10:00,55.8,54.4,30.09,South,190,0.0,0.0,95,0.00,,,0.00,Wunderground v.1.15,2013-09-04 10:10:00,
2013-09-04 05:15:00,55.7,54.3,30.09,South,190,0.0,0.0,95,0.00,,,0.00,Wunderground v.1.15,2013-09-04 10:15:00,
2013-09-04 05:25:00,55.7,54.3,30.09,South,190,0.0,0.0,95,0.00,,,0.00,Wunderground v.1.15,2013-09-04 10:25:00,
2013-09-04 05:35:00,55.4,54.0,30.09,South,190,0.0,0.0,95,0.00,,,0.00,Wunderground v.1.15,2013-09-04 10:35:00,
2013-09-04 05:45:00,55.1,53.7,30.09,South,190,0.0,0.0,95,0.00,,,0.00,Wunderground v.1.15,2013-09-04 10:45:00,
2013-09-04 05:55:00,54.7,53.3,30.10,South,190,0.0,0.0,95,0.00,,,0.00,Wunderground v.1.15,2013-09-04 10:55:00,
2013-09-04 06:05:00,54.4,53.0,30.10,South,190,0.0,0.0,95,0.00,,,0.01,Wunderground v.1.15,2013-09-04 11:05:00,
2013-09-04 06:10:00,54.3,52.9,30.10,South,190,0.0,0.0,95,0.00,,,0.01,Wunderground v.1.15,2013-09-04 11:10:00,
2013-09-04 06:20:00,54.3,52.9,30.11,South,190,0.0,0.0,95,0.00,,,0.01,Wunderground v.1.15,2013-09-04 11:20:00,
2013-09-04 06:25:00,54.1,52.7,30.11,South,190,0.0,0.0,95,0.00,,,0.01,Wunderground v.1.15,2013-09-04 11:25:00,
2013-09-04 06:35:00,54.0,52.6,30.11,South,190,0.0,0.0,95,0.00,,,0.01,Wunderground v.1.15,2013-09-04 11:35:00,
2013-09-04 06:40:00,54.0,52.6,30.11,South,190,0.0,0.0,95,0.00,,,0.01,Wunderground v.1.15,2013-09-04 11:40:00,
2013-09-04 06:50:00,53.9,52.5,30.11,South,190,0.0,0.0,95,0.00,,,0.01,Wunderground v.1.15,2013-09-04 11:50:00,
2013-09-04 06:55:00,53.9,52.5,30.11,South,190,0.0,0.0,95,0.00,,,0.01,Wunderground v.1.15,2013-09-04 11:55:00,
2013-09-04 07:05:00,54.3,53.2,30.12,South,190,0.0,0.0,96,0.00,,,0.01,Wunderground v.1.15,2013-09-04 12:05:00,
2013-09-04 07:10:00,54.7,53.6,30.12,South,190,0.0,0.0,96,0.00,,,0.01,Wunderground v.1.15,2013-09-04 12:10:00,
2013-09-04 07:20:00,55.7,54.6,30.12,South,190,0.0,0.0,96,0.00,,,0.01,Wunderground v.1.15,2013-09-04 12:20:00,
2013-09-04 07:25:00,56.1,55.3,30.12,South,190,0.0,0.0,97,0.00,,,0.01,Wunderground v.1.15,2013-09-04 12:25:00,
2013-09-04 07:35:00,56.8,56.0,30.11,South,190,0.0,0.0,97,0.00,,,0.01,Wunderground v.1.15,2013-09-04 12:35:00,
2013-09-04 07:45:00,57.8,57.0,30.12,South,190,0.0,0.0,97,0.00,,,0.01,Wunderground v.1.15,2013-09-04 12:45:00,
2013-09-04 07:55:00,58.7,57.9,30.12,South,190,0.0,0.0,97,0.00,,,0.01,Wunderground v.1.15,2013-09-04 12:55:00,
2013-09-04 08:05:00,59.7,58.8,30.12,South,190,0.0,0.0,97,0.00,,,0.01,Wunderground v.1.15,2013-09-04 13:05:00,
2013-09-04 08:10:00,60.1,59.2,30.12,South,190,0.0,0.0,97,0.00,,,0.01,Wunderground v.1.15,2013-09-04 13:10:00,
2013-09-04 08:20:00,61.1,60.0,30.12,South,190,0.0,0.0,96,0.00,,,0.01,Wunderground v.1.15,2013-09-04 13:20:00,
2013-09-04 08:30:00,61.9,60.2,30.12,South,190,0.0,0.0,94,0.00,,,0.01,Wunderground v.1.15,2013-09-04 13:30:00,
2013-09-04 08:40:00,62.6,59.9,30.12,South,190,0.0,0.0,91,0.00,,,0.01,Wunderground v.1.15,2013-09-04 13:40:00,
2013-09-04 08:50:00,63.4,60.4,30.13,SW,221,0.0,0.0,90,0.00,,,0.01,Wunderground v.1.15,2013-09-04 13:50:00,
2013-09-04 08:55:00,64.0,60.7,30.13,SW,226,1.0,1.0,89,0.00,,,0.01,Wunderground v.1.15,2013-09-04 13:55:00,
2013-09-04 09:05:00,65.0,61.0,30.13,SW,236,0.0,3.0,87,0.00,,,0.01,Wunderground v.1.15,2013-09-04 14:05:00,
2013-09-04 09:10:00,65.6,61.0,30.13,SW,236,1.0,2.0,85,0.00,,,0.01,Wunderground v.1.15,2013-09-04 14:10:00,
2013-09-04 09:20:00,66.6,61.3,30.13,WSW,241,0.0,0.0,83,0.00,,,0.01,Wunderground v.1.15,2013-09-04 14:20:00,
2013-09-04 09:30:00,67.7,61.3,30.13,WSW,242,0.0,0.0,80,0.00,,,0.01,Wunderground v.1.15,2013-09-04 14:30:00,
2013-09-04 09:35:00,68.4,62.0,30.13,WSW,242,0.0,0.0,80,0.00,,,0.01,Wunderground v.1.15,2013-09-04 14:35:00,
2013-09-04 09:45:00,69.4,61.9,30.13,WSW,242,0.0,0.0,77,0.00,,,0.01,Wunderground v.1.15,2013-09-04 14:45:00,
2013-09-04 09:55:00,70.4,61.3,30.13,WSW,246,1.0,2.0,73,0.00,,,0.01,Wunderground v.1.15,2013-09-04 14:55:00,
2013-09-04 10:05:00,71.2,61.7,30.13,WSW,247,0.0,1.0,72,0.00,,,0.01,Wunderground v.1.15,2013-09-04 15:05:00,
2013-09-04 10:15:00,72.2,61.9,30.13,WSW,247,0.0,2.0,70,0.00,,,0.01,Wunderground v.1.15,2013-09-04 15:15:00,
2013-09-04 10:25:00,73.0,61.8,30.13,West,265,1.0,3.0,68,0.00,,,0.01,Wunderground v.1.15,2013-09-04 15:25:00,
2013-09-04 10:35:00,73.5,61.9,30.13,West,264,1.0,5.0,67,0.00,,,0.01,Wunderground v.1.15,2013-09-04 15:35:00,
2013-09-04 10:40:00,74.0,62.3,30.13,West,266,1.0,1.0,67,0.00,,,0.01,Wunderground v.1.15,2013-09-04 15:40:00,
2013-09-04 10:50:00,74.8,61.4,30.14,WSW,257,1.0,1.0,63,0.00,,,0.01,Wunderground v.1.15,2013-09-04 15:50:00,
2013-09-04 11:00:00,75.2,61.7,30.14,WSW,257,1.0,1.0,63,0.00,,,0.01,Wunderground v.1.15,2013-09-04 16:00:00,
2013-09-04 11:10:00,75.5,61.6,30.14,West,275,1.0,1.0,62,0.00,,,0.01,Wunderground v.1.15,2013-09-04 16:10:00,
2013-09-04 11:20:00,76.4,62.0,30.14,WNW,293,0.0,0.0,61,0.00,,,0.01,Wunderground v.1.15,2013-09-04 16:20:00,
2013-09-04 11:30:00,76.4,62.4,30.13,NNW,335,1.0,1.0,62,0.00,,,0.01,Wunderground v.1.15,2013-09-04 16:30:00,
2013-09-04 11:35:00,76.4,60.5,30.13,NNW,327,1.0,1.0,58,0.00,,,0.01,Wunderground v.1.15,2013-09-04 16:35:00,
2013-09-04 11:45:00,77.1,60.7,30.13,West,278,1.0,1.0,57,0.00,,,0.01,Wunderground v.1.15,2013-09-04 16:45:00,
2013-09-04 11:50:00,77.4,60.5,30.13,West,276,1.0,1.0,56,0.00,,,0.01,Wunderground v.1.15,2013-09-04 16:50:00,
2013-09-04 12:00:00,78.1,63.1,30.13,West,265,1.0,1.0,60,0.00,,,0.01,Wunderground v.1.15,2013-09-04 17:00:00,
2013-09-04 12:05:00,78.4,61.9,30.13,West,265,0.0,1.0,57,0.00,,,0.01,Wunderground v.1.15,2013-09-04 17:05:00,
2013-09-04 12:15:00,77.5,61.6,30.12,NW,318,2.0,6.0,58,0.00,,,0.01,Wunderground v.1.15,2013-09-04 17:15:00,
2013-09-04 12:20:00,78.0,61.0,30.12,WNW,291,1.0,1.0,56,0.00,,,0.01,Wunderground v.1.15,2013-09-04 17:20:00,
2013-09-04 12:30:00,78.0,61.0,30.12,West,277,1.0,1.0,56,0.00,,,0.01,Wunderground v.1.15,2013-09-04 17:30:00,
2013-09-04 12:40:00,79.1,61.5,30.12,South,186,1.0,1.0,55,0.00,,,0.01,Wunderground v.1.15,2013-09-04 17:40:00,
2013-09-04 12:50:00,79.8,60.1,30.12,West,259,0.0,0.0,51,0.00,,,0.01,Wunderground v.1.15,2013-09-04 17:50:00,
2013-09-04 13:00:00,80.3,59.4,30.12,West,262,1.0,1.0,49,0.00,,,0.01,Wunderground v.1.15,2013-09-04 18:00:00,
2013-09-04 13:05:00,79.7,59.4,30.12,NNW,348,2.0,2.0,50,0.00,,,0.01,Wunderground v.1.15,2013-09-04 18:05:00,
2013-09-04 13:15:00,80.2,62.0,30.11,West,269,1.0,1.0,54,0.00,,,0.01,Wunderground v.1.15,2013-09-04 18:15:00,
2013-09-04 13:25:00,80.5,61.3,30.11,West,263,0.0,1.0,52,0.00,,,0.01,Wunderground v.1.15,2013-09-04 18:25:00,
2013-09-04 13:30:00,80.4,60.1,30.12,West,263,0.0,1.0,50,0.00,,,0.01,Wunderground v.1.15,2013-09-04 18:30:00,
2013-09-04 13:40:00,80.6,60.8,30.11,WSW,244,1.0,1.0,51,0.00,,,0.01,Wunderground v.1.15,2013-09-04 18:40:00,
2013-09-04 13:50:00,80.6,58.5,30.11,NNW,336,1.0,1.0,47,0.00,,,0.01,Wunderground v.1.15,2013-09-04 18:50:00,
2013-09-04 14:00:00,81.5,58.7,30.11,South,189,1.0,1.0,46,0.00,,,0.01,Wunderground v.1.15,2013-09-04 19:00:00,
2013-09-04 14:05:00,81.8,60.2,30.11,SSW,196,1.0,1.0,48,0.00,,,0.01,Wunderground v.1.15,2013-09-04 19:05:00,
2013-09-04 14:15:00,82.4,60.7,30.11,West,259,0.0,0.0,48,0.00,,,0.01,Wunderground v.1.15,2013-09-04 19:15:00,
2013-09-04 14:20:00,82.7,60.4,30.11,West,259,0.0,1.0,47,0.00,,,0.01,Wunderground v.1.15,2013-09-04 19:20:00,
2013-09-04 14:30:00,82.5,59.0,30.10,WNW,284,1.0,1.0,45,0.00,,,0.01,Wunderground v.1.15,2013-09-04 19:30:00,
2013-09-04 14:35:00,81.9,57.8,30.10,NW,305,1.0,1.0,44,0.00,,,0.01,Wunderground v.1.15,2013-09-04 19:35:00,
2013-09-04 14:45:00,82.4,58.9,30.10,West,259,1.0,1.0,45,0.00,,,0.01,Wunderground v.1.15,2013-09-04 19:45:00,
2013-09-04 14:50:00,82.8,59.3,30.10,West,267,1.0,1.0,45,0.00,,,0.01,Wunderground v.1.15,2013-09-04 19:50:00,
2013-09-04 15:00:00,83.2,57.7,30.10,West,264,1.0,1.0,42,0.00,,,0.01,Wunderground v.1.15,2013-09-04 20:00:00,
2013-09-04 15:10:00,83.7,60.1,30.10,West,259,1.0,1.0,45,0.00,,,0.01,Wunderground v.1.15,2013-09-04 20:10:00,
2013-09-04 15:15:00,83.7,60.7,30.10,West,259,0.0,5.0,46,0.00,,,0.01,Wunderground v.1.15,2013-09-04 20:15:00,
2013-09-04 15:25:00,83.6,59.4,30.10,West,280,0.0,0.0,44,0.00,,,0.01,Wunderground v.1.15,2013-09-04 20:25:00,
2013-09-04 15:35:00,83.5,58.6,30.09,NNW,348,0.0,0.0,43,0.00,,,0.01,Wunderground v.1.15,2013-09-04 20:35:00,
2013-09-04 15:45:00,83.0,60.1,30.09,West,260,1.0,1.0,46,0.00,,,0.01,Wunderground v.1.15,2013-09-04 20:45:00,
2013-09-04 15:50:00,83.0,60.1,30.09,West,259,1.0,1.0,46,0.00,,,0.01,Wunderground v.1.15,2013-09-04 20:50:00,
2013-09-04 16:00:00,83.0,60.1,30.08,West,259,0.0,0.0,46,0.00,,,0.01,Wunderground v.1.15,2013-09-04 21:00:00,
2013-09-04 16:10:00,82.7,59.8,30.08,West,259,0.0,0.0,46,0.00,,,0.01,Wunderground v.1.15,2013-09-04 21:10:00,
2013-09-04 16:20:00,83.1,60.2,30.08,WSW,254,1.0,1.0,46,0.00,,,0.01,Wunderground v.1.15,2013-09-04 21:20:00,
2013-09-04 16:25:00,83.5,59.9,30.08,WSW,254,0.0,1.0,45,0.00,,,0.01,Wunderground v.1.15,2013-09-04 21:25:00,
2013-09-04 16:35:00,83.8,60.8,30.07,WSW,254,0.0,0.0,46,0.00,,,0.01,Wunderground v.1.15,2013-09-04 21:35:00,
2013-09-04 16:45:00,83.9,60.3,30.07,WSW,258,0.0,0.0,45,0.00,,,0.01,Wunderground v.1.15,2013-09-04 21:45:00,
2013-09-04 16:50:00,83.7,60.7,30.07,WSW,258,0.0,0.0,46,0.00,,,0.01,Wunderground v.1.15,2013-09-04 21:50:00,
2013-09-04 17:00:00,83.6,60.6,30.07,WSW,258,0.0,0.0,46,0.00,,,0.01,Wunderground v.1.15,2013-09-04 22:00:00,
2013-09-04 17:05:00,83.7,61.9,30.07,WSW,258,0.0,0.0,48,0.00,,,0.01,Wunderground v.1.15,2013-09-04 22:05:00,
2013-09-04 17:15:00,83.9,61.5,30.07,WSW,254,0.0,0.0,47,0.00,,,0.01,Wunderground v.1.15,2013-09-04 22:15:00,
2013-09-04 17:20:00,83.9,60.9,30.07,WSW,254,0.0,0.0,46,0.00,,,0.01,Wunderground v.1.15,2013-09-04 22:20:00,
2013-09-04 17:30:00,84.0,61.0,30.07,WSW,254,0.0,0.0,46,0.00,,,0.01,Wunderground v.1.15,2013-09-04 22:30:00,
2013-09-04 17:35:00,84.0,61.0,30.07,WSW,254,0.0,0.0,46,0.00,,,0.01,Wunderground v.1.15,2013-09-04 22:35:00,
2013-09-04 17:45:00,83.4,60.4,30.07,WSW,254,0.0,0.0,46,0.00,,,0.01,Wunderground v.1.15,2013-09-04 22:45:00,
2013-09-04 17:50:00,83.0,60.1,30.07,WSW,254,0.0,0.0,46,0.00,,,0.01,Wunderground v.1.15,2013-09-04 22:50:00,
2013-09-04 18:00:00,82.6,60.9,30.07,WSW,254,0.0,0.0,48,0.00,,,0.01,Wunderground v.1.15,2013-09-04 23:00:00,
2013-09-04 18:05:00,82.6,61.5,30.07,WSW,254,0.0,0.0,49,0.00,,,0.01,Wunderground v.1.15,2013-09-04 23:05:00,
2013-09-04 18:15:00,82.5,60.8,30.07,WSW,254,0.0,0.0,48,0.00,,,0.01,Wunderground v.1.15,2013-09-04 23:15:00,
2013-09-04 18:20:00,82.3,60.6,30.07,WSW,254,0.0,0.0,48,0.00,,,0.01,Wunderground v.1.15,2013-09-04 23:20:00,
2013-09-04 18:30:00,81.8,62.5,30.07,WSW,254,0.0,0.0,52,0.00,,,0.01,Wunderground v.1.15,2013-09-04 23:30:00,
2013-09-04 18:35:00,81.5,62.7,30.07,WSW,254,0.0,0.0,53,0.00,,,0.01,Wunderground v.1.15,2013-09-04 23:35:00,
2013-09-04 18:45:00,80.5,63.4,30.07,WSW,254,0.0,0.0,56,0.00,,,0.01,Wunderground v.1.15,2013-09-04 23:45:00,
2013-09-04 18:50:00,79.9,63.3,30.07,WSW,254,0.0,0.0,57,0.00,,,0.01,Wunderground v.1.15,2013-09-04 23:50:00,
2013-09-04 19:00:00,78.7,63.2,30.07,WSW,254,0.0,0.0,59,0.00,,,0.01,Wunderground v.1.15,2013-09-05 00:00:00,
2013-09-04 19:10:00,77.8,63.3,30.07,WSW,254,0.0,0.0,61,0.00,,,0.01,Wunderground v.1.15,2013-09-05 00:10:00,
2013-09-04 19:20:00,77.0,63.4,30.07,WSW,254,0.0,0.0,63,0.00,,,0.01,Wunderground v.1.15,2013-09-05 00:20:00,
2013-09-04 19:30:00,75.8,63.2,30.07,WSW,254,0.0,0.0,65,0.00,,,0.01,Wunderground v.1.15,2013-09-05 00:30:00,
2013-09-04 19:35:00,75.1,63.0,30.07,WSW,254,0.0,0.0,66,0.00,,,0.01,Wunderground v.1.15,2013-09-05 00:35:00,
2013-09-04 19:45:00,74.2,62.5,30.07,WSW,254,0.0,0.0,67,0.00,,,0.01,Wunderground v.1.15,2013-09-05 00:45:00,
2013-09-04 19:55:00,73.3,62.5,30.07,WSW,254,0.0,0.0,69,0.00,,,0.01,Wunderground v.1.15,2013-09-05 00:55:00,
2013-09-04 20:05:00,72.7,62.3,30.07,WSW,254,0.0,0.0,70,0.00,,,0.01,Wunderground v.1.15,2013-09-05 01:05:00,
2013-09-04 20:15:00,72.2,61.9,30.08,WSW,254,0.0,0.0,70,0.00,,,0.01,Wunderground v.1.15,2013-09-05 01:15:00,
2013-09-04 20:20:00,72.0,62.1,30.08,WSW,254,0.0,0.0,71,0.00,,,0.01,Wunderground v.1.15,2013-09-05 01:20:00,
2013-09-04 20:30:00,71.5,62.0,30.08,WSW,254,0.0,0.0,72,0.00,,,0.01,Wunderground v.1.15,2013-09-05 01:30:00,
2013-09-04 20:40:00,70.9,61.4,30.08,WSW,254,0.0,0.0,72,0.00,,,0.01,Wunderground v.1.15,2013-09-05 01:40:00,
2013-09-04 20:45:00,70.7,61.6,30.08,WSW,254,0.0,0.0,73,0.00,,,0.01,Wunderground v.1.15,2013-09-05 01:45:00,
2013-09-04 20:55:00,70.3,62.0,30.08,WSW,254,0.0,0.0,75,0.00,,,0.01,Wunderground v.1.15,2013-09-05 01:55:00,
2013-09-04 21:00:00,70.1,62.2,30.08,WSW,254,0.0,0.0,76,0.00,,,0.01,Wunderground v.1.15,2013-09-05 02:00:00,
2013-09-04 21:10:00,69.7,61.8,30.09,WSW,254,0.0,0.0,76,0.00,,,0.01,Wunderground v.1.15,2013-09-05 02:10:00,
2013-09-04 21:15:00,69.6,61.3,30.09,WSW,254,0.0,0.0,75,0.00,,,0.01,Wunderground v.1.15,2013-09-05 02:15:00,
2013-09-04 21:25:00,69.4,61.5,30.09,WSW,254,0.0,0.0,76,0.00,,,0.01,Wunderground v.1.15,2013-09-05 02:25:00,
2013-09-04 21:30:00,69.1,61.6,30.09,WSW,254,0.0,0.0,77,0.00,,,0.01,Wunderground v.1.15,2013-09-05 02:30:00,
2013-09-04 21:40:00,68.5,61.4,30.09,WSW,254,0.0,0.0,78,0.00,,,0.01,Wunderground v.1.15,2013-09-05 02:40:00,
2013-09-04 21:50:00,68.1,61.0,30.09,WSW,254,0.0,0.0,78,0.00,,,0.01,Wunderground v.1.15,2013-09-05 02:50:00,
2013-09-04 22:00:00,67.6,60.9,30.09,WSW,254,0.0,0.0,79,0.00,,,0.01,Wunderground v.1.15,2013-09-05 03:00:00,
2013-09-04 22:10:00,67.1,60.7,30.09,WSW,254,0.0,0.0,80,0.00,,,0.01,Wunderground v.1.15,2013-09-05 03:10:00,
2013-09-04 22:20:00,66.8,60.8,30.09,WSW,254,0.0,0.0,81,0.00,,,0.01,Wunderground v.1.15,2013-09-05 03:20:00,
2013-09-04 22:25:00,66.6,60.6,30.09,WSW,254,0.0,0.0,81,0.00,,,0.01,Wunderground v.1.15,2013-09-05 03:25:00,
2013-09-04 22:35:00,66.3,60.6,30.09,WSW,254,0.0,0.0,82,0.00,,,0.01,Wunderground v.1.15,2013-09-05 03:35:00,
2013-09-04 22:40:00,66.1,60.4,30.09,WSW,254,0.0,0.0,82,0.00,,,0.01,Wunderground v.1.15,2013-09-05 03:40:00,
2013-09-04 22:50:00,66.0,60.7,30.09,WSW,254,0.0,0.0,83,0.00,,,0.01,Wunderground v.1.15,2013-09-05 03:50:00,
2013-09-04 22:55:00,65.9,60.9,30.09,WSW,254,0.0,0.0,84,0.00,,,0.01,Wunderground v.1.15,2013-09-05 03:55:00,
2013-09-04 23:05:00,65.8,60.8,30.09,WSW,254,0.0,0.0,84,0.00,,,0.01,Wunderground v.1.15,2013-09-05 04:05:00,
2013-09-04 23:10:00,65.9,60.9,30.09,WSW,254,0.0,0.0,84,0.00,,,0.01,Wunderground v.1.15,2013-09-05 04:10:00,
2013-09-04 23:15:00,65.8,60.8,30.10,WSW,254,0.0,0.0,84,0.00,,,0.01,Wunderground v.1.15,2013-09-05 04:15:00,
2013-09-04 23:25:00,65.6,60.6,30.09,WSW,254,0.0,0.0,84,0.00,,,0.01,Wunderground v.1.15,2013-09-05 04:25:00,
2013-09-04 23:30:00,65.5,60.9,30.09,WSW,254,0.0,0.0,85,0.00,,,0.01,Wunderground v.1.15,2013-09-05 04:30:00,
2013-09-04 23:40:00,65.3,60.7,30.09,WSW,254,0.0,0.0,85,0.00,,,0.01,Wunderground v.1.15,2013-09-05 04:40:00,
2013-09-04 23:45:00,65.1,60.5,30.09,WSW,254,0.0,0.0,85,0.00,,,0.01,Wunderground v.1.15,2013-09-05 04:45:00,
2013-09-04 23:55:00,65.1,61.1,30.10,WSW,254,0.0,0.0,87,0.00,,,0.01,Wunderground v.1.15,2013-09-05 04:55:00,